Home   Weather   North Bay   Past weeks

Flag for Canada Past Weather in North Bay, Ontario, Canada — Yesterday and Last 2 Weeks

Now
34 °F

Low clouds.


Feels Like: 22 °F
Forecast: 29 / 33 °F
Wind: 22 mph from East

Location: North Bay

Current Time: Jan 22, 2017 at 7:33:02 pm

Latest Report: Jan 22, 2017 at 6:00 pm


Visibility: 15 mi

Pressure: 29.81 "Hg

Humidity: 93%

Dew Point: 32 °F

Location of North BayLocation

Past Weather in North Bay — Graph

°F

North Bay Temperature Yesterday

Maximum temperature yesterday: 36 °F (at 3:53 pm)
Minimum temperature yesterday: 32 °F (at 12:32 am)
Average temperature yesterday: 33 °F

High & Low Weather Summary for the Past Weeks

 TemperatureHumidityPressure
High37 °F (Jan 11, 12:00 am)100% (Jan 10, 4:23 pm)30.83 "Hg (Jan 10, 4:23 pm)
Low-11 °F (Jan 8, 9:00 pm)60% (Jan 13, 2:00 pm)29.22 "Hg (Jan 11, 1:00 am)
Average22 °F89%30.05 "Hg
* Reported Jan 7 6:00 pm — Jan 22 6:00 pm, North Bay, Weather by CustomWeather, © 2017

Note: Actual official high and low records may vary slightly from our data, if they occured in-between our weather recording intervals... More about our weather records

Advertising

North Bay Weather History for the Previous 24 Hours

Scroll right to see more
 ConditionsComfort  
Time TempWeatherWind HumidityBarometerVisibility
6:00 pm
Sun, Jan 22
34 °FLow clouds.22 mph93%29.81 "Hg15 mi
5:00 pm34 °FLow clouds.20 mph93%29.81 "Hg15 mi
4:00 pm34 °FLow clouds.21 mph93%29.79 "Hg15 mi
3:00 pm34 °FLow clouds.20 mph100%29.79 "Hg15 mi
2:00 pm36 °FLow clouds.21 mph93%29.79 "Hg15 mi
1:00 pm36 °FLow clouds.18 mph93%29.79 "Hg15 mi
12:00 pm36 °FLow clouds.18 mph93%29.80 "Hg15 mi
11:00 am36 °FLow clouds.14 mph93%29.82 "Hg15 mi
10:00 am36 °FLow clouds.15 mph93%29.79 "Hg15 mi
9:00 am36 °FLow clouds.17 mph93%29.75 "Hg10 mi
8:00 am36 °FFog.14 mph93%29.75 "Hg2 mi
7:00 am36 °FFog.14 mph93%29.75 "Hg3 mi
6:06 am36 °FFog.13 mph93%29.74 "Hg3 mi
5:47 am36 °FFog.12 mph93%29.75 "Hg2 mi
5:19 am36 °FFog.13 mph93%29.74 "Hg1 mi
5:09 am36 °FLight rain. Fog.14 mph93%29.74 "Hg1 mi
4:35 am36 °FLight rain. Fog.10 mph93%29.75 "Hg1 mi
4:00 am34 °FFog.9 mph100%29.76 "Hg1 mi
3:50 am34 °FFog.10 mph100%29.75 "Hg1 mi
3:35 am36 °FLight rain. Fog.12 mph93%29.75 "Hg1 mi
3:00 am34 °FFog.10 mph100%29.75 "Hg1 mi
2:24 am36 °FFog.9 mph93%29.75 "Hg1 mi
2:04 am36 °FLight rain. Fog.8 mph93%29.74 "Hg2 mi
1:58 am36 °FFog.8 mph93%29.74 "Hg2 mi
1:00 am34 °FMostly cloudy.9 mph100%29.72 "Hg9 mi
12:00 am34 °FOvercast.10 mph100%29.74 "Hg9 mi
11:29 pm
Sat, Jan 21
34 °FMostly cloudy.12 mph100%29.75 "Hg8 mi
11:22 pm34 °FFog.12 mph100%29.75 "Hg5 mi
11:10 pm34 °FFog.12 mph100%29.75 "Hg6 mi
11:02 pm34 °FFog.12 mph100%29.75 "Hg3 mi
10:00 pm34 °FDrizzle. Fog.12 mph100%29.74 "Hg1 mi
9:20 pm34 °FDrizzle. Fog.9 mph100%29.75 "Hg0 mi
9:00 pm34 °FDrizzle. Fog.8 mph100%29.75 "Hg0 mi
8:00 pm34 °FDrizzle. Fog.5 mph100%29.75 "Hg0 mi
7:00 pm34 °FDrizzle. Fog.9 mph100%29.75 "Hg0 mi
Weather by CustomWeather, © 2017

See weather overviewHow to use our weather pages